N4ZOI Weather Reports


time (UTC)temp
C
wind
direction
speed
KPH
gust
KPH
rain 1hr
cm
rain 24hr
cm
rain mn
cm
humidity
%
barometer
mb
20260503174354 18 355 3.2 0.0 0.00 0.00 0.00 40 1018.6
20260503173838 18 219 3.2 0.0 0.00 0.00 0.00 38 1018.5
20260503173342 18 254 3.2 0.0 0.00 0.00 0.00 40 1018.6
20260503172847 18 265 3.2 0.0 0.00 0.00 0.00 43 1018.5
20260503172352 18 234 3.2 0.0 0.00 0.00 0.00 41 1018.5
20260503171857 18 302 1.6 0.0 0.00 0.00 0.00 43 1018.7
20260503171337 17 220 1.6 0.0 0.00 0.00 0.00 41 1018.7
20260503170902 17 355 3.2 0.0 0.00 0.00 0.00 42 1018.8
20260503170346 17 267 3.2 0.0 0.00 0.00 0.00 40 1018.9
20260503150858 15 325 3.2 0.0 0.00 0.00 0.00 44 1019.9
20260503150338 15 198 3.2 0.0 0.00 0.00 0.00 45 1019.9
20260503131350 10 322 1.6 0.0 0.00 0.00 0.00 75 1019.7
20260503130832 10 9 1.6 0.0 0.00 0.00 0.00 78 1019.6
20260503130336 10 324 0.0 0.0 0.00 0.00 0.00 79 1019.6
20260503110349 5 24 0.0 0.0 0.00 0.00 0.00 96 1018.5
20260503090343 6 24 0.0 0.0 0.00 0.00 0.00 96 1017.0
20260503081348 6 24 0.0 0.0 0.00 0.00 0.00 96 1016.6
20260503080833 6 24 0.0 0.0 0.00 0.00 0.00 96 1016.5
20260503080337 6 24 0.0 0.0 0.00 0.00 0.00 96 1016.4
20260503072904 7 24 0.0 0.0 0.00 0.00 0.00 96 1015.8
20260503072349 7 24 0.0 0.0 0.00 0.00 0.00 96 1015.8
20260503071833 7 24 0.0 0.0 0.00 0.00 0.00 96 1015.7
20260503071337 7 24 0.0 0.0 0.00 0.00 0.00 96 1015.7
20260503070843 7 24 0.0 0.0 0.00 0.00 0.00 96 1015.6
20260503070348 7 24 0.0 0.0 0.00 0.00 0.00 96 1015.6
20260503054845 8 24 0.0 0.0 0.00 0.00 0.00 96 1015.3
20260503054349 8 24 0.0 0.0 0.00 0.00 0.00 96 1015.3
20260503053834 8 24 0.0 0.0 0.00 0.00 0.00 96 1015.2
20260503053337 8 24 0.0 0.0 0.00 0.00 0.00 96 1015.3
20260503052841 8 24 0.0 0.0 0.00 0.00 0.00 96 1015.3
20260503052407 8 24 0.0 0.0 0.00 0.00 0.00 96 1015.2
20260503051849 8 24 0.0 0.0 0.00 0.00 0.00 96 1015.2
20260503051350 8 24 0.0 0.0 0.00 0.00 0.00 96 1015.2
20260503050835 8 24 0.0 0.0 0.00 0.00 0.00 96 1015.1
20260503050340 8 24 0.0 0.0 0.00 0.00 0.00 96 1015.0
20260503045840 8 24 0.0 0.0 0.00 0.00 0.00 96 1015.0
20260503045406 8 24 0.0 0.0 0.00 0.00 0.00 96 1015.1
20260503044848 8 24 0.0 0.0 0.00 0.00 0.00 96 1015.1
20260503044332 8 24 0.0 0.0 0.00 0.00 0.00 96 1015.0
20260503043833 8 24 0.0 0.0 0.00 0.00 0.00 96 1015.0
20260503043337 8 24 0.0 0.0 0.00 0.00 0.00 96 1014.9
20260503042842 8 24 0.0 0.0 0.00 0.00 0.00 96 1014.9
20260503042347 8 24 0.0 0.0 0.00 0.00 0.00 96 1014.9
20260503041851 8 24 0.0 0.0 0.00 0.00 0.00 95 1015.0
20260503041356 8 24 0.0 0.0 0.00 0.00 0.00 95 1014.9
20260503040836 8 24 0.0 0.0 0.00 0.00 0.00 95 1014.9
20260503040340 8 24 0.0 0.0 0.00 0.00 0.00 95 1014.8
20260503035845 8 24 0.0 0.0 0.00 0.00 0.86 95 1014.8
20260503035350 9 24 0.0 0.0 0.00 0.00 0.86 95 1014.8
20260503034855 9 24 0.0 0.0 0.00 0.00 0.86 96 1014.7
20260503034339 9 24 0.0 0.0 0.00 0.00 0.86 96 1014.7
20260503033840 9 24 0.0 0.0 0.00 0.00 0.86 96 1014.6
20260503033344 9 24 0.0 0.0 0.00 0.00 0.86 95 1014.6
20260503032849 9 24 0.0 0.0 0.00 0.00 0.86 95 1014.5
20260503032334 9 24 0.0 0.0 0.00 0.00 0.86 96 1014.5
20260503031838 9 24 0.0 0.0 0.00 0.00 0.86 96 1014.5
20260503031344 9 24 0.0 0.0 0.00 0.00 0.86 95 1014.4
20260503030849 9 24 0.0 0.0 0.00 0.00 0.86 95 1014.4
20260503030333 10 24 0.0 0.0 0.00 0.00 0.86 95 1014.4
20260503025834 10 24 0.0 0.0 0.00 0.00 0.86 95 1014.4
20260503025339 10 24 0.0 0.0 0.00 0.00 0.86 95 1014.3
20260503024844 10 24 0.0 0.0 0.00 0.00 0.86 95 1014.2
20260503024349 10 24 0.0 0.0 0.00 0.00 0.86 95 1014.1
20260503023833 10 24 0.0 0.0 0.00 0.00 0.86 95 1014.0
20260503023337 10 24 0.0 0.0 0.00 0.00 0.86 95 1013.9
20260503022842 10 24 0.0 0.0 0.00 0.00 0.86 95 1013.9
20260503022344 10 24 0.0 0.0 0.00 0.00 0.86 95 1013.9
20260503021848 10 24 0.0 0.0 0.00 0.00 0.86 95 1013.9
20260503021333 10 24 0.0 0.0 0.00 0.00 0.86 95 1013.9
20260503020837 10 24 0.0 0.0 0.00 0.00 0.86 95 1013.8
20260503020402 10 24 0.0 0.0 0.00 0.00 0.86 95 1013.8
20260503015846 10 24 0.0 0.0 0.00 0.00 0.86 95 1013.8
20260503015346 10 24 0.0 0.0 0.00 0.00 0.86 95 1013.8
20260503014830 10 24 0.0 0.0 0.00 0.00 0.86 94 1013.7
20260503014355 10 24 0.0 0.0 0.00 0.00 0.86 95 1013.6
20260503013835 11 24 0.0 0.0 0.00 0.00 0.86 94 1013.6
20260503013359 11 24 0.0 0.0 0.00 0.00 0.86 95 1013.5
20260503012843 11 24 0.0 0.0 0.00 0.00 0.86 94 1013.5
20260503012405 11 24 0.0 0.0 0.00 0.00 0.86 94 1013.5
20260503011908 11 24 0.0 0.0 0.00 0.00 0.86 94 1013.4
20260503011332 11 24 0.0 0.0 0.00 0.00 0.86 94 1013.2
20260503010857 11 24 0.0 0.0 0.00 0.00 0.86 94 1013.2
20260503010339 11 24 0.0 0.0 0.00 0.00 0.86 94 1013.2
20260503005845 11 24 0.0 0.0 0.00 0.00 0.86 94 1013.1
20260503005406 11 24 0.0 0.0 0.00 0.00 0.86 93 1013.0
20260503004849 11 24 0.0 0.0 0.00 0.00 0.86 93 1012.8
20260503004334 11 24 0.0 0.0 0.00 0.00 0.86 92 1012.7
20260503003900 12 24 0.0 0.0 0.00 0.00 0.86 92 1012.5
20260503003343 12 24 0.0 0.0 0.00 0.00 0.86 92 1012.5
20260503002848 12 24 0.0 0.0 0.00 0.00 0.86 92 1012.4
20260503002409 12 24 0.0 0.0 0.00 0.00 0.86 91 1012.3
20260503001832 12 24 0.0 0.0 0.00 0.00 0.86 90 1012.1
20260503001337 12 24 0.0 0.0 0.00 0.00 0.86 90 1012.1
20260503000842 12 24 0.0 0.0 0.00 0.00 0.86 89 1012.0
20260503000347 13 24 0.0 0.0 0.00 0.00 0.86 88 1011.9
20260502235852 13 24 0.0 0.0 0.00 0.00 0.86 87 1011.9
20260502235332 13 24 0.0 0.0 0.00 0.00 0.86 87 1011.9
20260502234836 13 24 0.0 0.0 0.00 0.00 0.86 87 1011.9
20260502234341 13 24 0.0 0.0 0.00 0.00 0.86 86 1011.8
20260502233847 13 24 0.0 0.0 0.00 0.00 0.86 87 1011.7
20260502233331 13 24 0.0 0.0 0.00 0.00 0.86 86 1011.7
20260502232836 13 24 0.0 0.0 0.00 0.00 0.86 86 1011.5
20260502232338 13 24 0.0 0.0 0.00 0.00 0.86 87 1011.5
20260502231858 13 24 0.0 0.0 0.00 0.00 0.86 86 1011.5
20260502231339 13 24 0.0 0.0 0.00 0.00 0.86 84 1011.5
20260502230845 13 24 0.0 0.0 0.00 0.00 0.86 83 1011.3
20260502230409 13 24 0.0 0.0 0.00 0.00 0.86 83 1011.4
20260502225833 13 24 0.0 0.0 0.00 0.00 0.86 85 1011.4
20260502225338 13 24 0.0 0.0 0.00 0.00 0.86 85 1011.4
20260502224858 13 24 0.0 0.0 0.00 0.00 0.86 83 1011.4
20260502224342 13 24 0.0 0.0 0.00 0.00 0.86 82 1011.3
20260502223848 13 24 0.0 0.0 0.00 0.00 0.86 81 1011.4
20260502223332 13 24 0.0 0.0 0.00 0.00 0.86 81 1011.4
20260502222837 13 24 0.0 0.0 0.00 0.00 0.86 80 1011.4
20260502222342 14 24 0.0 0.0 0.00 0.00 0.86 80 1011.5
20260502221847 14 24 0.0 0.0 0.00 0.00 0.86 80 1011.4
20260502221405 14 24 0.0 0.0 0.00 0.00 0.86 78 1011.4
20260502220849 14 24 0.0 0.0 0.00 0.00 0.86 81 1011.4
20260502220333 14 56 0.0 0.0 0.00 0.00 0.86 78 1011.4
20260502215859 14 54 0.0 0.0 0.00 0.00 0.86 77 1011.3
20260502215343 14 54 0.0 0.0 0.00 0.00 0.86 79 1011.2
20260502214848 14 39 0.0 0.0 0.00 0.00 0.86 80 1011.2
20260502214349 14 36 0.0 0.0 0.00 0.00 0.86 78 1011.2
20260502213854 14 40 1.6 0.0 0.00 0.00 0.86 77 1011.2
20260502213357 14 84 0.0 0.0 0.00 0.00 0.86 76 1011.2
20260502212841 14 26 0.0 0.0 0.00 0.00 0.86 79 1011.2
20260502212346 14 66 0.0 0.0 0.00 0.00 0.86 76 1011.1
20260502211831 14 109 1.6 0.0 0.00 0.00 0.86 78 1011.0
20260502211352 14 5 1.6 0.0 0.00 0.00 0.86 76 1011.0
20260502210856 14 130 1.6 0.0 0.00 0.00 0.86 79 1011.0
20260502210359 14 46 1.6 0.0 0.00 0.00 0.86 77 1011.1
20260502205843 14 238 0.0 0.0 0.00 0.00 0.86 79 1011.1
20260502205349 14 345 1.6 0.0 0.00 0.00 0.86 80 1011.1
20260502204833 14 23 0.0 0.0 0.00 0.00 0.86 79 1011.1
20260502204354 14 195 0.0 0.0 0.00 0.00 0.86 80 1011.1
20260502203838 14 47 0.0 0.0 0.00 0.00 0.86 81 1011.2
20260502203342 14 46 0.0 0.0 0.00 0.00 0.86 83 1011.2
20260502202847 13 49 0.0 0.0 0.00 0.00 0.86 81 1011.3
20260502202332 13 15 1.6 0.0 0.00 0.00 0.86 84 1011.4
20260502201837 13 40 1.6 0.0 0.00 0.00 0.86 83 1011.3
20260502201359 13 68 1.6 0.0 0.00 0.00 0.86 82 1011.3
20260502200843 13 344 1.6 0.0 0.00 0.00 0.86 83 1011.3
20260502200348 13 57 1.6 0.0 0.00 0.00 0.86 83 1011.5
20260502195832 13 202 1.6 0.0 0.00 0.00 0.86 82 1011.6
20260502195338 13 306 0.0 0.0 0.00 0.00 0.86 86 1011.6
20260502194842 13 355 1.6 0.0 0.00 0.00 0.86 83 1011.6
20260502194347 13 269 1.6 0.0 0.00 0.00 0.86 84 1011.6
20260502193848 13 355 1.6 0.0 0.00 0.00 0.86 83 1011.6
20260502193333 13 74 1.6 0.0 0.00 0.00 0.86 87 1011.7
20260502192837 13 306 0.0 0.0 0.00 0.00 0.86 87 1011.7
20260502192340 13 345 1.6 0.0 0.00 0.00 0.86 85 1011.6
20260502191844 13 309 1.6 0.0 0.00 0.00 0.86 84 1011.6
20260502191349 13 66 1.6 0.0 0.00 0.00 0.86 85 1011.5
20260502190834 13 355 1.6 0.0 0.00 0.00 0.86 86 1011.4
20260502190355 13 63 1.6 0.0 0.00 0.00 0.86 85 1011.6
20260502185838 13 32 1.6 0.0 0.00 0.00 0.86 87 1011.6
20260502185344 13 355 1.6 0.0 0.00 0.00 0.86 88 1011.7
20260502184908 13 75 1.6 0.0 0.00 0.00 0.86 88 1011.7
20260502184332 13 360 3.2 0.0 0.00 0.00 0.86 86 1011.8
20260502183837 13 75 1.6 0.0 0.00 0.00 0.86 88 1011.9
20260502183337 13 313 1.6 0.0 0.00 0.00 0.86 89 1011.8
20260502182842 12 46 1.6 0.0 0.00 0.00 0.86 89 1011.8
20260502182347 12 218 1.6 0.0 0.00 0.00 0.86 90 1011.8
20260502181831 12 200 1.6 0.0 0.00 0.00 0.86 91 1011.9
20260502181336 12 294 1.6 0.0 0.00 0.00 0.86 91 1011.8
20260502180842 12 305 1.6 0.0 0.00 0.00 0.86 91 1012.0
20260502180406 12 233 1.6 0.0 0.00 0.00 0.86 90 1012.0